Weather Roundup
Issued by NWS Springfield, MO

Home | Current Version | Previous Version | Text Only | Print | Product List | Glossary On
Versions: 1 2 3 4 5 6 7 8 9 10 11 12 13 14 15 16 17 18 19 20 21 22 23 24 25 26 27 28 29 30 31 32 33 34 35 36 37 38 39 40 41 42 43 44 45 46 47 48 49 50
000
NZUS99 KSGF 261657
HRRSGF

HOURLY WEATHER
NATIONAL WEATHER SERVICE SPRINGFIELD MO
1200 PM CDT THU MAY 26 2016

......SGF CWA......

CITY           SKY/WX    TMP DP  RH WIND       PRES   REMARKS
SPRINGFIELD    SUNNY     83  70  64 S10       29.94F
JOPLIN         MOSUNNY   85  73  67 S17G23    29.90F HX  91
WEST PLAINS    PTSUNNY   83  70  64 SW10      29.99F
ROLLA          CLOUDY    72  68  87 E10       29.90F
BRANSON        PTSUNNY   82  72  69 S8        29.99F

......SURROUNDING SGF CWA......

CITY           SKY/WX    TMP DP  RH WIND       PRES   REMARKS
CHANUTE        PTSUNNY   83  72  69 S23G29    29.85F
PARSONS        MOSUNNY   84  74  71 S15G25    29.87F HX  91
COFFEYVILLE    MOSUNNY   83  74  74 S15G25    29.87F
EMPORIA        PTSUNNY   81  73  76 S20G25    29.81F
HARRISON AR    SUNNY     83  73  72 S10       29.99F

......KANSAS AND MISSOURI......

CITY           SKY/WX    TMP DP  RH WIND       PRES   REMARKS
KANSAS CTY INT CLOUDY    71  66  84 S9        29.88S
SEDALIA        SUNNY     81  67  62 SW6       29.93R
ST JOSEPH      CLOUDY    68  65  90 SE8       29.86F
ST LOUIS       CLOUDY    74  65  73 S17G25    29.94F
WICHITA        PTSUNNY   84  73  69 S15G25    29.79S HX  90
TOPEKA         PTSUNNY   76  71  85 SE16      29.84F
OLATHE         PTSUNNY   77  69  76 SE10      29.89S

......TENNESSEE......

CITY           SKY/WX    TMP DP  RH WIND       PRES   REMARKS
MEMPHIS        NOT AVBL
NASHVILLE      PTSUNNY   84  66  54 SW6       30.10F

......ARKANSAS.......

CITY           SKY/WX    TMP DP  RH WIND       PRES   REMARKS
FAYETTEVILLE   MOSUNNY   79  72  79 S9        29.98S
FT SMITH       CLOUDY    83  70  64 S9        29.93F
LITTLE ROCK    PTSUNNY   86  72  62 S10       30.00F HX  92

......OKLAHOMA.......

CITY           SKY/WX    TMP DP  RH WIND       PRES   REMARKS
TULSA          CLOUDY    80  75  84 S15       29.86F
PONCA CITY     PTSUNNY   84  74  71 S12G21    29.79F HX  91
MCALESTER      CLOUDY    78  73  84 S9G18     29.91F
OKLAHOMA CITY  CLOUDY    82  73  74 S21G30    29.82F

......IOWA............

CITY           SKY/WX    TMP DP  RH WIND       PRES   REMARKS
DES MOINES     NOT AVBL
QUAD CITIES    CLOUDY    82  65  56 S9G18     29.88F

......ILLINOIS........

CITY           SKY/WX    TMP DP  RH WIND       PRES   REMARKS
QUINCY         NOT AVBL
CHICAGO        CLOUDY    75  64  68 S12       29.92F



USA.gov is the U.S. government's official web portal to all federal, state and local government web resources and services.